Location: Quebec
(46.8000°N, 71.2500°W)
Time: 15:27:21
(UTC-04:00)

ISS - Visible Passes

Search period start: 22 June 2021 00:00
Search period end: 02 July 2021 00:00
Orbit: 417 x 422 km, 51.6° (Epoch: 22 June)

Date Brightness Start Highest point End Pass type
(mag) Time Alt. Az. Time Alt. Az. Time Alt. Az.
28 Jun -1.7 03:39:52 10° S 03:42:13 18° SE 03:44:35 10° E visible
29 Jun -1.3 02:54:07 11° SSE 02:55:00 11° SE 02:56:07 10° ESE visible
30 Jun -3.1 03:41:21 15° SSW 03:43:51 42° SE 03:47:05 10° ENE visible
01 Jul -2.5 02:55:35 24° S 02:56:31 27° SE 02:59:28 10° E visible
